User: anonymous   Login
Location: Melbourne
(37.8170°S, 144.9670°E)
Time: 08:08:13
(UTC+11:00)
Language:

Explorer 11/Cluster Stage 4 - Orbit

View from above orbital plane
View from above orbital plane
View from above satellite
View from above satellite

Ground track
Ground track

The orbit data is extracted from the following two-line orbital elements,

1   107U 61013A   18050.86733343 +.00000342 +00000-0 +23206-4 0  9996
2   107 028.7912 292.4647 0548567 259.1732 094.6656 14.08523930846466
Epoch (UTC): 19 February 2018 20:48:57
Eccentricity: 0.0548567
inclination: 28.7912°
perigee height: 467 km
apogee height: 1262 km
right ascension of ascending node: 292.4647°
argument of perigee: 259.1732°
revolutions per day: 14.08523930
mean anomaly at epoch: 94.6656°
orbit number at epoch: 84646

The dashed part of the orbit path shows where the satellite is in the earth's shadow,  

DLR